Torna al catalogo

COSMOS 970 DEB

AttivoLEO
NORAD 14907·DEBRIS·🇷🇺 Russia

Lanciato Dec 21, 1977 da Baikonur Cosmodrome

Loading…

Prossimi Passaggi (prossime 24 ore)

TLE

AggiornatoSource: Space-Track

Epoca: Sep 14, 2026, 01:47 UTC

1 14907U 77121BL  26257.07468427 -.00000053  00000-0  31466-4 0  9992
2 14907  66.0273 137.2958 0065592  25.6046 123.2920 13.55196795213402

Traccia COSMOS 970 DEB in tempo reale con AllMySat

Download on the App Store